Regional Weather Roundup
Issued by NWS

Home | Current Version | Previous Version | Graphics & Text | Print | Product List | Glossary On
Versions: 1 2 3 4 5 6 7 8 9 10 11 12 13 14 15 16 17 18 19 20 21 22 23 24 25 26 27 28 29 30 31 32 33 34 35 36 37 38 39 40 41 42 43 44 45 46 47 48 49 50
000
ASUS43 KMKX 261921
RWRWI

WISCONSIN REGIONAL WEATHER ROUNDUP
NATIONAL WEATHER SERVICE MILWAUKEE/SULLIVAN WI
200 PM CDT TUE JUL 26 2016

NOTE: "FAIR" INDICATES FEW OR NO CLOUDS BELOW 12,000 FEET WITH NO
SIGNIFICANT WEATHER AND/OR OBSTRUCTIONS TO VISIBILITY.

WIZ001-002-006>008-014>016-023>028-262000-
NORTHWEST WISCONSIN

CITY           SKY/WX    TMP DP  RH WIND       PRES   REMARKS
SUPERIOR ARPT  MOSUNNY   82  69  64 W9        29.95S HX  85
ASHLAND        MOSUNNY   83  67  58 SW10      29.94F HX  85
HAYWARD        MOSUNNY   84  65  52 W12       29.98F HX  86
SIREN          CLOUDY    84  66  54 SW9       29.98F HX  86
CUMBERLAND     SUNNY     82  61  47 SW16G22   30.00F HX  83
RICE LAKE      SUNNY     85  64  48 SW12G20   30.01F HX  87
CHETEK         SUNNY     87  65  48 MISG      30.00F HX  89
LADYSMITH      SUNNY     85  65  50 SW13G18   30.02F HX  87
EAU CLAIRE     SUNNY     88  64  44 W13       30.01F HX  89
MENOMONIE      SUNNY     89  64  43 SW15      30.02F HX  91
NEW RICHMOND   SUNNY     87  61  41 SW15      30.01F HX  87
OSCEOLA        SUNNY     88  62  41 SW10G18   30.02F HX  88
$$

WIZ003>005-009-010-017-018-262000-
NORTH CENTRAL WISCONSIN

CITY           SKY/WX    TMP DP  RH WIND       PRES   REMARKS
MANITOWISH WTR MOSUNNY   85  63  47 SW9G18    29.99S HX  86
ARBOR VITAE    SUNNY     85  63  47 SW15G22   30.00F HX  86
WOODRUFF       SUNNY     85  63  47 SW15G22   30.00F HX  86
RHINELANDER    SUNNY     88  61  40 W15G23    30.02F HX  88
EAGLE RIVER    SUNNY     84  60  43 W13G18    30.00F HX  84
LAND O LAKES   SUNNY     86  58  38 SW13G18   30.00F HX  85
PHILLIPS       MOSUNNY   84  65  53 SW17      29.99F HX  86
TOMAHAWK       SUNNY     85  60  43 SW7       30.02F HX  85
MEDFORD        SUNNY     82  68  61 SW10G17   30.05S HX  85
MERRILL        SUNNY     86  65  49 W17       30.03F HX  88
$$

WIZ029-030-035-036-043>047-262000-
CENTRAL WISCONSIN

CITY           SKY/WX    TMP DP  RH WIND       PRES   REMARKS
WAUSAU         SUNNY     85  64  49 W10G20    30.02F HX  86
MOSINEE        MOSUNNY   84  63  48 W10G18    30.05F HX  85
MARSHFIELD     SUNNY     86  65  49 W10       30.05F HX  88
STEVENS POINT  MOSUNNY   84  64  51 W9        30.04F HX  85
WAUPACA        MOSUNNY   88  63  43 SW6       30.03F HX  89
WAUTOMA        MOSUNNY   87  66  49 W8        30.04F HX  89
WISC RAPIDS    MOSUNNY   88  62  41 VRB7      30.05F HX  88
CAMP DOUGLAS   MOSUNNY   82  68  61 W5        30.05F HX  85
$$

WIZ011>013-019>022-031-037>040-048>050-262000-
NORTHEAST WISCONSIN

CITY           SKY/WX    TMP DP  RH WIND       PRES   REMARKS
ANTIGO         MOSUNNY   84  65  52 W7G17     30.04F HX  86
SHAWANO        MOSUNNY   87  65  48 SW9       30.01F HX  89
OCONTO         SUNNY     87  68  53 SW10      29.99S HX  90
STURGEON BAY   SUNNY     85  67  54 W12       30.01F HX  87
GREEN BAY      SUNNY     85  69  58 SW7       30.02F HX  89
MANITOWOC      PTSUNNY   85  62  46 W6        30.03F HX  85
APPLETON       PTSUNNY   82  61  47 SW9       30.03F HX  83
CLINTONVILLE   MOSUNNY   86  61  42 SW9       30.01F HX  86
OSHKOSH        MOSUNNY   84  62  47 SW5       30.03F HX  85
$$

WIZ032>034-041-042-053>061-262000-
SOUTHWEST WISCONSIN

CITY           SKY/WX    TMP DP  RH WIND       PRES   REMARKS
LA CROSSE      MOSUNNY   88  66  48 W6        30.04F HX  90
SPARTA         SUNNY     86  65  49 W8        30.06F HX  87
VIROQUA        MOSUNNY   84  63  49 CALM      30.08F HX  85
BOSCOBEL       SUNNY     87  64  46 CALM      30.05F HX  88
PRAIRIE DU CHI SUNNY     84  59  41 CALM      30.05F HX  84
PLATTEVILLE    MOSUNNY   82  68  62 W3        30.08F HX  84
$$

WIZ056-057-062-063-064-067-068-262000-
SOUTH CENTRAL WISCONSIN

CITY           SKY/WX    TMP DP  RH WIND       PRES   REMARKS
REEDSBURG      MOSUNNY   84  65  52 SW5       30.06F HX  85
BARABOO/DELLS  PTSUNNY   83  62  47 SW7       30.07S HX  84
LONE ROCK      SUNNY     84  63  49 W3        30.06F HX  85
MINERAL POINT  MOSUNNY   84  63  48 CALM      30.08F HX  85
MADISON        MOSUNNY   85  58  39 W5        30.06S HX  84
MIDDLETON      SUNNY     86  63  46 NW3       30.07F HX  87
WATERTOWN      SUNNY     83  64  52 W7        30.06S HX  85
MONROE         MOSUNNY   81  61  50 CALM      30.07F HX  81
JANESVILLE     MOSUNNY   86  61  42 CALM      30.05S HX  86
$$

WIZ051-052-058>065-066-070>072-262000-
SOUTHEAST WISCONSIN

CITY           SKY/WX    TMP DP  RH WIND       PRES   REMARKS
MILWAUKEE      MOSUNNY   84  59  42 E10       30.04F HX  84
WAUKESHA       MOSUNNY   82  59  44 W3        30.06F HX  82
MILWAUKEE/TIMM MOSUNNY   86  52  30 E8        30.04F HX  84
RACINE         SUNNY     83  61  47 E9        30.06F HX  83
BURLINGTON     MOSUNNY   85  59  41 SW5       30.05S HX  85
KENOSHA        SUNNY     85  62  46 E9        30.05S HX  85
FOND DU LAC    PTSUNNY   86  63  45 VRB7      30.04F HX  87
SHEBOYGAN      MOSUNNY   85  61  44 CALM      30.03F HX  85
WEST BEND      PTSUNNY   86  57  37 NE3       30.05S HX  85
JUNEAU         MOSUNNY   82  64  54 W5        30.07S HX  84
$$

LSZ147-162-262000-
LAKE SUPERIOR

STATION/POSITION TIME  TEMP    WIND        PRES    WAVE
                       AIR SEA DIR/SP/G            HT/PER
                 (UTC) (F)     (DEG/KT/KT) (MB)    (FT/S)
W MID LAKE BUOY  1850   65 62  110/  2/  2 1012.8F   1
DEVILS ISLAND    1900   73     240/ 15/ 17 1013.1R
SAXON HARBOR     1840   86     220/  4/  8 1013.2F
$$

LMZ867-665-643>646-262000-
LAKE MICHIGAN

STATION/POSITION TIME  TEMP    WIND        PRES    WAVE
                       AIR SEA DIR/SP/G            HT/PER
                 (UTC) (F)     (DEG/KT/KT) (MB)    (FT/S)
CHAMBERS ISLAND  1800   80     170/  6/ 11 1015.6F
S GREEN BAY BUOY 1800   78 76  190/ 10/ 10   N/A
N MID LAKE BUOY  1850   72 71  210/ 12/ 14 1014.7F   1
NORTHPORT PIER   1800   80     130/  4/  6 1015.2F
SISTER BAY       1706   84     300/  8/  8   N/A
ALGOMA LAKESHORE 1813          220/ 11/ 13   N/A
KEWAUNEE LAKESHO 1800   71     170/  8/ 11 1016.3F
SHEBOYGAN LAKESH 1900   71     160/ 13/ 13 1017.1F
PORT WASHINGTON  1840   77     190/  6/  7 1017.9F
ATWATER BUOY     1900   68 54  230/  2/  2 1019.1F
MILWAUKEE LAKESH 1810   71     130/  2/  2   N/A
S MID LAKE BUOY  1850   76 77  190/  6/  6 1016.9F   0
KENOSHA   LAKESH 1900   75     160/  6/  7 1016.9F
$$

TC  - TEMPERATURE IN CELSIUS
VSB - VISIBILITY IN STATUTE MILES
WCI - WIND CHILL INDEX
HX  - HEAT INDEX





USA.gov is the U.S. government's official web portal to all federal, state and local government web resources and services.